Location: D�rnast
(49.6426°N, 11.9755°E)
Time: 01:28:43
(UTC+00:00)

N. Korean satellite - Pass Details

Date: 09 December 2021
Orbit: 446 x 492 km, 97.3° (Epoch: 16 January)

Event Time Altitude Azimuth Distance (km) Brightness Sun altitude
Rises 05:27:32 0° 1° (N) 2,465 10.0 -13.6°
Reaches altitude 10° 05:29:50 10° 347° (NNW) 1,586 8.9 -13.3°
Maximum altitude 05:32:33 23° 293° (WNW) 1,013 7.5 -12.9°
Drops below altitude 10° 05:35:15 10° 240° (WSW) 1,576 8.8 -12.5°
Sets 05:37:33 0° 225° (SW) 2,445 9.9 -12.1°
